Location: Dumbr?vi?a
(45.8833°N, 22.7000°E)
Time: 19:28:51
(UTC+00:00)

ERBS - Pass Details

Date: 03 March 2021
Orbit: 408 x 412 km, 57.0° (Epoch: 13 April)

Event Time Altitude Azimuth Distance (km) Brightness Sun altitude
Rises 17:21:54 0° 259° (WSW) 2,348 7.8 -11.8°
Reaches altitude 10° 17:24:10 10° 271° (W) 1,487 6.6 -12.2°
Maximum altitude 17:27:04 27° 332° (NNW) 827 4.1 -12.7°
Drops below altitude 10° 17:29:59 10° 34° (NNE) 1,489 4.7 -13.2°
Enters shadow 17:30:15 - 36° (NE) 1,582 4.9 -13.2°
